Temp
54 53 52 52 51 50 50 51 53 55 55 55 55 55 54 52 53 53 51 50 51 51
54 53 52 51 50 50 51 53 56 55 54 54 54 54 53 52 51 51 51 50 50 49
53 52 51 51 50 50 52 53 54 53 53 53 54 53 52 51 51 51 50 50 50 50
52 52 51 50 50 51 54 54 53 53 52 52 52 52 51 51 51 50 50 51 50 50
51 50 49 49 51 54 53 53 52 52 52 51 52 52 51 50 51 50 50 50 50 51
49 49 48 49 51 53 53 52 52 51 51 51 52 51 52 51 51 51 51 51 51 51
48 48 48 50 52 53 52 50 51 51 51 51 52 52 51 52 51 52 51 51 50 52
48 49 49 52 52 52 51 51 51 51 51 51 51 52 51 52 51 50 50 51 53 53
48 49 49 52 51 50 50 50 51 51 51 50 51 49 51 52 51 50 48 49 51 53
48 49 50 52 50 49 49 50 50 50 50 49 51 48 48 51 51 49 48 49 51 53
48 49 51 50 49 49 49 49 49 50 49 49 50 47 47 48 51 51 51 51 52 53
48 48 50 49 48 48 47 48 50 49 49 49 48 45 42 48 51 51 50 49 47 52
48 50 48 47 47 48 48 48 49 49 49 48 47 44 42 48 50 49 49 49 48 45
50 49 48 47 48 46 47 48 49 48 46 45 45 46 43 47 49 49 48 48 46 47
MSLP
1019.95 1020.09 1020.10 1020.01 1019.99 1019.84 1019.59 1019.31 1018.80 1018.26 1017.81 1017.57 1017.28 1016.99 1016.78 1016.74 1016.69 1016.60 1016.43 1016.25 1016.11 1015.97
1019.98 1020.06 1020.19 1020.20 1020.13 1019.77 1019.06 1018.56 1018.13 1017.75 1017.58 1017.25 1017.01 1016.77 1016.64 1016.53 1016.33 1016.12 1015.80 1015.76 1015.69 1015.66
1020.14 1020.12 1020.11 1019.99 1019.63 1019.30 1018.82 1018.18 1017.83 1017.58 1017.32 1017.03 1016.79 1016.59 1016.37 1016.15 1015.80 1015.62 1015.40 1015.33 1015.30 1015.14
1020.14 1020.10 1020.01 1019.78 1019.38 1018.97 1018.39 1018.01 1017.65 1017.39 1017.11 1016.84 1016.57 1016.35 1016.11 1015.80 1015.49 1015.18 1015.11 1014.94 1014.84 1014.65
1020.09 1020.03 1019.94 1019.65 1019.11 1018.66 1018.10 1017.73 1017.49 1017.19 1016.92 1016.61 1016.31 1016.06 1015.83 1015.47 1015.16 1014.97 1014.68 1014.55 1014.46 1014.28
1020.19 1020.02 1019.78 1019.33 1018.87 1018.29 1017.88 1017.46 1017.16 1016.91 1016.62 1016.30 1016.09 1015.88 1015.58 1015.26 1014.96 1014.69 1014.54 1014.38 1014.28 1014.05
1020.13 1019.88 1019.47 1018.98 1018.53 1018.07 1017.66 1017.22 1016.83 1016.60 1016.37 1016.13 1015.92 1015.70 1015.44 1015.15 1014.79 1014.68 1014.38 1014.20 1014.02 1013.66
1019.97 1019.60 1019.16 1018.60 1018.20 1017.82 1017.37 1016.94 1016.60 1016.35 1016.16 1016.00 1015.85 1015.60 1015.38 1015.11 1014.93 1014.75 1014.39 1013.99 1013.63 1013.31
1019.66 1019.31 1018.89 1018.33 1017.94 1017.57 1017.09 1016.72 1016.44 1016.17 1016.06 1015.88 1015.78 1015.60 1015.36 1015.19 1015.03 1014.73 1014.44 1013.96 1013.55 1013.32
1019.59 1019.18 1018.61 1018.09 1017.74 1017.35 1016.93 1016.60 1016.29 1016.06 1015.94 1015.83 1015.76 1015.65 1015.52 1015.36 1015.13 1014.82 1014.55 1014.19 1013.85 1013.52
1019.42 1018.98 1018.46 1017.97 1017.62 1017.21 1016.86 1016.53 1016.18 1016.04 1015.99 1015.94 1015.99 1015.88 1015.74 1015.43 1015.22 1014.93 1014.66 1014.55 1014.28 1014.05
1019.30 1018.79 1018.34 1017.93 1017.59 1017.26 1016.94 1016.51 1016.23 1016.15 1016.21 1016.25 1016.29 1016.13 1015.92 1015.54 1015.34 1015.24 1015.17 1015.08 1014.95 1014.67
1019.17 1018.64 1018.25 1018.07 1017.76 1017.38 1016.94 1016.57 1016.31 1016.39 1016.61 1016.68 1016.65 1016.42 1016.14 1015.82 1015.71 1015.58 1015.51 1015.53 1015.51 1015.38
1019.05 1018.70 1018.51 1018.28 1017.80 1017.38 1016.93 1016.54 1016.48 1016.83 1017.19 1017.21 1017.10 1016.81 1016.37 1016.18 1016.05 1016.12 1015.87 1015.94 1016.05 1016.04
Wind_Speed
2 1 2 2 3 4 4 6 8 9 7 7 6 6 5 3 5 6 7 8 6 5
3 3 4 5 5 5 6 6 7 8 8 7 6 6 6 5 7 7 7 6 6 6
4 4 5 5 7 7 7 6 7 8 8 7 7 7 7 6 7 7 4 4 6 5
5 5 5 5 7 8 6 6 7 7 7 7 7 7 6 7 7 7 6 5 5 6
5 5 6 7 8 7 6 6 7 7 7 7 7 7 7 7 5 5 5 4 5 7
6 5 6 7 7 7 6 6 6 5 7 7 7 6 6 5 6 6 4 6 6 7
6 6 7 7 7 8 6 6 6 5 6 6 6 6 5 5 3 4 5 5 5 5
6 6 7 7 7 7 6 5 5 6 6 5 4 3 4 4 3 5 6 5 2 3
6 6 7 7 7 7 6 6 5 5 6 5 3 6 5 3 3 4 4 5 4 3
7 7 7 7 7 7 6 6 6 5 4 4 4 5 4 5 3 4 4 4 4 4
7 7 7 7 6 6 5 5 5 3 3 3 4 6 6 6 3 3 4 5 5 4
7 7 7 7 7 6 5 5 4 2 4 3 4 9 9 5 4 5 7 7 8 5
6 6 6 7 7 5 5 4 2 3 4 7 5 9 9 3 3 4 4 6 7 12
6 5 5 6 6 5 5 3 4 6 6 6 6 7 8 6 4 3 4 6 5 4
Wind_Direction
31 305 281 274 280 269 268 279 280 288 287 291 286 284 265 257 262 262 254 249 242 250
293 296 278 281 281 274 276 281 291 294 289 289 291 282 268 266 262 264 252 245 248 248
285 260 265 284 275 280 281 279 295 300 295 291 296 292 278 269 267 263 249 244 250 253
270 277 294 283 287 274 283 293 300 301 300 300 298 293 287 276 276 266 264 245 257 260
288 291 290 295 290 290 290 301 298 305 304 294 292 293 289 291 296 286 272 261 261 269
291 293 290 292 292 295 295 302 300 301 301 302 304 301 299 295 284 282 280 280 288 289
296 290 284 289 295 297 300 303 303 301 302 307 307 300 296 306 307 311 301 302 276 272
294 291 291 292 300 303 302 298 302 305 313 311 303 299 310 298 322 337 325 308 313 306
296 299 297 299 305 307 306 309 310 312 321 313 310 322 321 305 346 332 329 332 348 356
303 304 305 308 311 306 315 314 313 314 322 323 327 353 349 332 5 332 331 350 8 29
306 308 309 317 312 312 319 324 317 330 350 20 26 11 359 340 344 360 18 39 26 51
308 308 322 322 325 324 319 327 338 4 18 47 26 7 351 358 27 62 59 45 33 28
308 318 331 339 329 319 317 319 323 51 53 44 17 355 351 35 52 60 56 55 48 38
325 344 351 327 344 322 330 336 71 69 49 39 15 340 1 50 51 53 54 45 31 35